| time (UTC) | temp C | wind direction | speed KPH | gust KPH | rain 1hr cm | rain 24hr cm | rain mn cm | humidity % | barometer mb |
| 20260508024605 | 7 | 166 | 0.0 | 0.0 | 0.00 | 0.00 | 0.00 | 86 | 1015.3 |
| 20260508024104 | 7 | 166 | 0.0 | 0.0 | 0.00 | 0.00 | 0.00 | 85 | 1015.3 |
| 20260508023605 | 7 | 166 | 0.0 | 0.0 | 0.00 | 0.00 | 0.00 | 85 | 1015.3 |
| 20260508021105 | 7 | 166 | 0.0 | 0.0 | 0.00 | 0.00 | 0.00 | 85 | 1015.2 |
| 20260508020104 | 7 | 166 | 0.0 | 0.0 | 0.00 | 0.00 | 0.00 | 84 | 1015.2 |
| 20260508015605 | 7 | 166 | 0.0 | 0.0 | 0.00 | 0.00 | 0.00 | 85 | 1015.2 |
| 20260508015105 | 7 | 166 | 0.0 | 0.0 | 0.00 | 0.00 | 0.00 | 84 | 1015.2 |
| 20260508014605 | 7 | 166 | 0.0 | 1.6 | 0.00 | 0.00 | 0.00 | 84 | 1015.2 |
| 20260508014105 | 7 | 166 | 0.0 | 1.6 | 0.00 | 0.00 | 0.00 | 84 | 1015.2 |
| 20260508013606 | 7 | 166 | 0.0 | 0.0 | 0.00 | 0.00 | 0.00 | 84 | 1015.2 |
| 20260508012604 | 7 | 166 | 0.0 | 0.0 | 0.00 | 0.00 | 0.00 | 83 | 1015.3 |
| 20260508011605 | 7 | 166 | 0.0 | 0.0 | 0.00 | 0.00 | 0.00 | 83 | 1015.3 |
| 20260508011104 | 7 | 166 | 0.0 | 0.0 | 0.00 | 0.00 | 0.00 | 83 | 1015.4 |
| 20260508010604 | 8 | 166 | 0.0 | 1.6 | 0.00 | 0.00 | 0.00 | 83 | 1015.4 |
| 20260508010105 | 8 | 166 | 0.0 | 3.2 | 0.00 | 0.00 | 0.00 | 83 | 1015.4 |
| 20260508004105 | 8 | 166 | 0.0 | 0.0 | 0.00 | 0.00 | 0.00 | 82 | 1015.4 |
| 20260508003106 | 8 | 166 | 0.0 | 1.6 | 0.00 | 0.00 | 0.00 | 82 | 1015.4 |
| 20260508002604 | 8 | 166 | 1.6 | 3.2 | 0.00 | 0.00 | 0.00 | 81 | 1015.4 |
| 20260508002105 | 8 | 166 | 1.6 | 3.2 | 0.00 | 0.00 | 0.00 | 84 | 1015.5 |
| 20260508001605 | 8 | 166 | 1.6 | 3.2 | 0.00 | 0.00 | 0.00 | 81 | 1015.4 |
| 20260508001105 | 9 | 166 | 1.6 | 3.2 | 0.00 | 0.00 | 0.00 | 81 | 1015.5 |
| 20260508000604 | 9 | 166 | 0.0 | 1.6 | 0.00 | 0.00 | 0.00 | 81 | 1015.5 |
| 20260507235605 | 9 | 166 | 0.0 | 1.6 | 0.00 | 0.00 | 0.00 | 80 | 1015.5 |
| 20260507235104 | 10 | 166 | 0.0 | 3.2 | 0.00 | 0.00 | 0.00 | 80 | 1015.5 |
| 20260507234605 | 10 | 166 | 0.0 | 3.2 | 0.00 | 0.00 | 0.00 | 80 | 1015.5 |
| 20260507233105 | 10 | 166 | 1.6 | 4.8 | 0.00 | 0.00 | 0.00 | 80 | 1015.5 |
| 20260507232605 | 10 | 167 | 3.2 | 4.8 | 0.00 | 0.00 | 0.00 | 80 | 1015.5 |
| 20260507231604 | 10 | 166 | 4.8 | 9.7 | 0.00 | 0.00 | 0.00 | 79 | 1015.5 |
| 20260507231107 | 11 | 154 | 4.8 | 9.7 | 0.00 | 0.00 | 0.00 | 79 | 1015.5 |
| 20260507230604 | 11 | 150 | 4.8 | 8.0 | 0.00 | 0.00 | 0.00 | 78 | 1015.5 |
| 20260507225605 | 11 | 158 | 8.0 | 9.7 | 0.00 | 0.00 | 0.00 | 78 | 1015.4 |
| 20260507225105 | 11 | 171 | 4.8 | 8.0 | 0.00 | 0.00 | 0.00 | 77 | 1015.5 |
| 20260507224104 | 11 | 193 | 0.0 | 4.8 | 0.00 | 0.00 | 0.00 | 76 | 1015.8 |
| 20260507223604 | 11 | 193 | 1.6 | 3.2 | 0.00 | 0.00 | 0.00 | 76 | 1015.9 |
| 20260507223104 | 11 | 193 | 1.6 | 3.2 | 0.00 | 0.00 | 0.00 | 76 | 1015.9 |
| 20260507215604 | 12 | 175 | 4.8 | 9.7 | 0.00 | 0.00 | 0.00 | 75 | 1015.8 |
| 20260507213104 | 12 | 198 | 3.2 | 9.7 | 0.00 | 0.00 | 0.00 | 74 | 1015.9 |
| 20260507212604 | 12 | 178 | 4.8 | 9.7 | 0.00 | 0.00 | 0.00 | 74 | 1015.9 |
| 20260507212104 | 12 | 181 | 6.4 | 9.7 | 0.00 | 0.00 | 0.00 | 74 | 1015.9 |
| 20260507210105 | 12 | 189 | 4.8 | 11.3 | 0.00 | 0.00 | 0.00 | 73 | 1015.7 |
| 20260507205604 | 12 | 181 | 4.8 | 11.3 | 0.00 | 0.00 | 0.00 | 73 | 1015.6 |
| 20260507204604 | 12 | 175 | 8.0 | 11.3 | 0.00 | 0.00 | 0.00 | 73 | 1015.6 |
| 20260507203604 | 12 | 183 | 6.4 | 11.3 | 0.00 | 0.00 | 0.00 | 72 | 1015.5 |
| 20260507203105 | 12 | 171 | 8.0 | 14.5 | 0.00 | 0.00 | 0.00 | 72 | 1015.5 |
| 20260507202104 | 12 | 167 | 8.0 | 11.3 | 0.00 | 0.00 | 0.00 | 72 | 1015.3 |
| 20260507195604 | 12 | 184 | 9.7 | 19.3 | 0.00 | 0.00 | 0.00 | 71 | 1015.0 |
| 20260507195104 | 12 | 180 | 8.0 | 12.9 | 0.00 | 0.00 | 0.00 | 71 | 1014.9 |
| 20260507194604 | 13 | 196 | 6.4 | 12.9 | 0.00 | 0.00 | 0.00 | 71 | 1014.9 |
| 20260507191104 | 13 | 190 | 8.0 | 12.9 | 0.00 | 0.00 | 0.00 | 68 | 1014.7 |
| 20260507190105 | 13 | 161 | 9.7 | 14.5 | 0.00 | 0.00 | 0.00 | 67 | 1014.6 |
| 20260507185604 | 13 | 213 | 9.7 | 19.3 | 0.00 | 0.00 | 0.00 | 66 | 1014.6 |
| 20260507185104 | 13 | 193 | 9.7 | 14.5 | 0.00 | 0.00 | 0.00 | 66 | 1014.6 |
| 20260507184604 | 13 | 218 | 9.7 | 19.3 | 0.00 | 0.00 | 0.00 | 65 | 1014.6 |
| 20260507184105 | 13 | 187 | 11.3 | 19.3 | 0.00 | 0.00 | 0.00 | 64 | 1014.6 |
| 20260507183104 | 14 | 235 | 9.7 | 19.3 | 0.00 | 0.00 | 0.00 | 63 | 1014.5 |
| 20260507182105 | 14 | 226 | 8.0 | 12.9 | 0.00 | 0.00 | 0.00 | 60 | 1014.5 |
| 20260507174604 | 15 | 217 | 11.3 | 19.3 | 0.00 | 0.00 | 0.00 | 56 | 1014.2 |
| 20260507173604 | 15 | 247 | 8.0 | 16.1 | 0.00 | 0.00 | 0.00 | 58 | 1014.2 |
| 20260507172604 | 15 | 213 | 9.7 | 19.3 | 0.00 | 0.00 | 0.00 | 58 | 1014.2 |
| 20260507171604 | 15 | 206 | 4.8 | 12.9 | 0.00 | 0.00 | 0.00 | 58 | 1014.2 |
| 20260507171104 | 15 | 218 | 8.0 | 16.1 | 0.00 | 0.00 | 0.00 | 58 | 1014.2 |
| 20260507170606 | 15 | 241 | 8.0 | 14.5 | 0.00 | 0.00 | 0.00 | 58 | 1014.2 |
| 20260507165604 | 15 | 221 | 11.3 | 19.3 | 0.00 | 0.00 | 0.00 | 59 | 1014.2 |
| 20260507164104 | 15 | 204 | 11.3 | 16.1 | 0.00 | 0.00 | 0.00 | 58 | 1014.2 |
| 20260507163104 | 15 | 216 | 8.0 | 11.3 | 0.00 | 0.00 | 0.00 | 58 | 1014.1 |
| 20260507162604 | 15 | 247 | 9.7 | 12.9 | 0.00 | 0.00 | 0.00 | 58 | 1014.1 |
| 20260507162104 | 15 | 245 | 4.8 | 12.9 | 0.00 | 0.00 | 0.00 | 57 | 1014.1 |
| 20260507161604 | 15 | 220 | 9.7 | 19.3 | 0.00 | 0.00 | 0.00 | 57 | 1014.1 |
| 20260507160604 | 15 | 216 | 11.3 | 20.9 | 0.00 | 0.00 | 0.00 | 56 | 1014.1 |
| 20260507160104 | 15 | 186 | 9.7 | 19.3 | 0.00 | 0.00 | 0.00 | 55 | 1014.1 |
| 20260507154604 | 16 | 187 | 11.3 | 19.3 | 0.00 | 0.00 | 0.00 | 52 | 1014.1 |
| 20260507154104 | 17 | 195 | 11.3 | 19.3 | 0.00 | 0.00 | 0.00 | 53 | 1014.1 |
| 20260507151604 | 16 | 200 | 4.8 | 12.9 | 0.00 | 0.00 | 0.00 | 55 | 1014.2 |
| 20260507151104 | 16 | 185 | 6.4 | 14.5 | 0.00 | 0.00 | 0.00 | 55 | 1014.2 |
| 20260507144604 | 16 | 234 | 6.4 | 12.9 | 0.00 | 0.00 | 0.00 | 50 | 1014.4 |
| 20260507143604 | 16 | 219 | 8.0 | 12.9 | 0.00 | 0.00 | 0.00 | 51 | 1014.4 |
| 20260507142604 | 16 | 181 | 4.8 | 12.9 | 0.00 | 0.00 | 0.00 | 52 | 1014.3 |
| 20260507140604 | 17 | 170 | 4.8 | 12.9 | 0.00 | 0.00 | 0.00 | 49 | 1014.5 |
| 20260507140104 | 17 | 169 | 9.7 | 19.3 | 0.00 | 0.00 | 0.00 | 50 | 1014.5 |
| 20260507135104 | 17 | 221 | 14.5 | 19.3 | 0.00 | 0.00 | 0.00 | 48 | 1014.5 |
| 20260507134104 | 17 | 160 | 11.3 | 16.1 | 0.00 | 0.00 | 0.00 | 50 | 1014.6 |
| 20260507133604 | 17 | 188 | 6.4 | 22.5 | 0.00 | 0.00 | 0.00 | 52 | 1014.5 |
| 20260507132604 | 17 | 183 | 11.3 | 19.3 | 0.00 | 0.00 | 0.00 | 49 | 1014.6 |
| 20260507132104 | 17 | 225 | 11.3 | 19.3 | 0.00 | 0.00 | 0.00 | 50 | 1014.7 |
| 20260507125104 | 16 | 178 | 8.0 | 14.5 | 0.00 | 0.00 | 0.00 | 55 | 1014.8 |
| 20260507124604 | 15 | 211 | 8.0 | 16.1 | 0.00 | 0.00 | 0.00 | 57 | 1014.9 |
| 20260507124104 | 15 | 235 | 8.0 | 14.5 | 0.00 | 0.00 | 0.00 | 55 | 1014.9 |
| 20260507123104 | 15 | 219 | 4.8 | 11.3 | 0.00 | 0.00 | 0.00 | 56 | 1014.9 |
| 20260507122604 | 15 | 191 | 8.0 | 12.9 | 0.00 | 0.00 | 0.00 | 56 | 1014.9 |
| 20260507121604 | 15 | 252 | 8.0 | 11.3 | 0.00 | 0.00 | 0.00 | 56 | 1015.0 |
| 20260507120604 | 15 | 159 | 8.0 | 12.9 | 0.00 | 0.00 | 0.00 | 57 | 1015.0 |
| 20260507120104 | 15 | 204 | 8.0 | 12.9 | 0.00 | 0.00 | 0.00 | 59 | 1015.0 |
| 20260507114605 | 15 | 171 | 8.0 | 19.3 | 0.00 | 0.00 | 0.00 | 60 | 1015.1 |
| 20260507113104 | 15 | 152 | 6.4 | 12.9 | 0.00 | 0.00 | 0.00 | 59 | 1015.0 |
| 20260507111104 | 15 | 196 | 8.0 | 16.1 | 0.00 | 0.00 | 0.00 | 55 | 1015.1 |
| 20260507110104 | 16 | 178 | 8.0 | 19.3 | 0.00 | 0.00 | 0.00 | 55 | 1015.1 |
| 20260507105603 | 16 | 212 | 9.7 | 14.5 | 0.00 | 0.00 | 0.00 | 56 | 1015.2 |
| 20260507104603 | 16 | 212 | 8.0 | 12.9 | 0.00 | 0.00 | 0.00 | 58 | 1015.2 |
| 20260507104103 | 15 | 242 | 4.8 | 11.3 | 0.00 | 0.00 | 0.00 | 58 | 1015.3 |
| 20260507103104 | 15 | 234 | 4.8 | 11.3 | 0.00 | 0.00 | 0.00 | 56 | 1015.2 |
| 20260507102604 | 15 | 242 | 4.8 | 12.9 | 0.00 | 0.00 | 0.00 | 54 | 1015.3 |
| 20260507102104 | 16 | 238 | 6.4 | 16.1 | 0.00 | 0.00 | 0.00 | 54 | 1015.3 |
| 20260507101604 | 16 | 219 | 6.4 | 14.5 | 0.00 | 0.00 | 0.00 | 49 | 1015.3 |
| 20260507101104 | 17 | 204 | 8.0 | 11.3 | 0.00 | 0.00 | 0.00 | 54 | 1015.3 |
| 20260507100604 | 16 | 221 | 8.0 | 14.5 | 0.00 | 0.00 | 0.00 | 58 | 1015.3 |
| 20260507100104 | 15 | 210 | 8.0 | 14.5 | 0.00 | 0.00 | 0.00 | 53 | 1015.4 |
| 20260507091604 | 15 | 155 | 9.7 | 14.5 | 0.00 | 0.00 | 0.00 | 60 | 1015.4 |
| 20260507091104 | 15 | 212 | 4.8 | 12.9 | 0.00 | 0.00 | 0.00 | 62 | 1015.4 |
| 20260507090104 | 15 | 191 | 9.7 | 16.1 | 0.00 | 0.00 | 0.00 | 65 | 1015.4 |
| 20260507085104 | 15 | 185 | 9.7 | 14.5 | 0.00 | 0.00 | 0.00 | 64 | 1015.4 |
| 20260507084104 | 15 | 142 | 8.0 | 12.9 | 0.00 | 0.00 | 0.00 | 65 | 1015.4 |
| 20260507083604 | 14 | 159 | 8.0 | 12.9 | 0.00 | 0.00 | 0.00 | 65 | 1015.4 |
| 20260507083104 | 14 | 183 | 8.0 | 12.9 | 0.00 | 0.00 | 0.00 | 68 | 1015.4 |
| 20260507082104 | 13 | 189 | 8.0 | 11.3 | 0.00 | 0.00 | 0.00 | 70 | 1015.4 |
| 20260507080604 | 13 | 159 | 8.0 | 11.3 | 0.00 | 0.00 | 0.00 | 75 | 1015.4 |
| 20260507074604 | 12 | 194 | 3.2 | 8.0 | 0.00 | 0.00 | 0.00 | 79 | 1015.4 |
| 20260507073104 | 11 | 208 | 0.0 | 4.8 | 0.00 | 0.00 | 0.00 | 82 | 1015.4 |
| 20260507071104 | 10 | 178 | 1.6 | 9.7 | 0.00 | 0.00 | 0.00 | 84 | 1015.4 |
| 20260507070103 | 10 | 211 | 3.2 | 8.0 | 0.00 | 0.00 | 0.00 | 84 | 1015.4 |
| 20260507065104 | 10 | 215 | 1.6 | 4.8 | 0.00 | 0.00 | 0.00 | 85 | 1015.3 |
| 20260507064105 | 10 | 167 | 3.2 | 4.8 | 0.00 | 0.00 | 0.00 | 85 | 1015.3 |
| 20260507063603 | 10 | 167 | 1.6 | 8.0 | 0.00 | 0.00 | 0.00 | 86 | 1015.3 |
| 20260507062104 | 10 | 116 | 3.2 | 4.8 | 0.00 | 0.00 | 0.00 | 87 | 1015.2 |
| 20260507061605 | 9 | 114 | 0.0 | 4.8 | 0.00 | 0.00 | 0.00 | 87 | 1015.2 |
| 20260507060606 | 9 | 114 | 0.0 | 3.2 | 0.00 | 0.00 | 0.00 | 87 | 1015.1 |
| 20260507060105 | 8 | 114 | 1.6 | 4.8 | 0.00 | 0.00 | 0.00 | 87 | 1015.0 |
| 20260507054605 | 8 | 114 | 0.0 | 0.0 | 0.00 | 0.00 | 0.00 | 88 | 1015.0 |
| 20260507051605 | 7 | 114 | 0.0 | 0.0 | 0.00 | 0.00 | 0.00 | 87 | 1014.8 |
| 20260507051108 | 7 | 114 | 0.0 | 0.0 | 0.00 | 0.00 | 0.00 | 87 | 1014.8 |
| 20260507050105 | 7 | 114 | 0.0 | 1.6 | 0.00 | 0.00 | 0.00 | 87 | 1014.7 |
| 20260507044607 | 7 | 114 | 0.0 | 1.6 | 0.00 | 0.00 | 0.00 | 87 | 1014.6 |
| 20260507043105 | 7 | 114 | 0.0 | 3.2 | 0.00 | 0.00 | 0.00 | 87 | 1014.6 |
| 20260507042604 | 7 | 114 | 0.0 | 4.8 | 0.00 | 0.00 | 0.00 | 87 | 1014.6 |
| 20260507042104 | 7 | 114 | 1.6 | 3.2 | 0.00 | 0.00 | 0.00 | 87 | 1014.7 |
| 20260507041105 | 7 | 114 | 1.6 | 3.2 | 0.00 | 0.00 | 0.00 | 87 | 1014.7 |
| 20260507040605 | 7 | 114 | 0.0 | 0.0 | 0.00 | 0.00 | 0.00 | 87 | 1014.6 |
| 20260507035607 | 7 | 114 | 0.0 | 1.6 | 0.00 | 0.00 | 0.00 | 87 | 1014.6 |
| 20260507035105 | 7 | 114 | 0.0 | 3.2 | 0.00 | 0.00 | 0.00 | 86 | 1014.6 |
| 20260507034105 | 7 | 114 | 1.6 | 4.8 | 0.00 | 0.00 | 0.00 | 86 | 1014.6 |
| 20260507033605 | 7 | 114 | 1.6 | 4.8 | 0.00 | 0.00 | 0.00 | 86 | 1014.5 |
| 20260507032105 | 7 | 114 | 1.6 | 4.8 | 0.00 | 0.00 | 0.00 | 86 | 1014.6 |
| 20260507031105 | 7 | 114 | 3.2 | 4.8 | 0.00 | 0.00 | 0.00 | 86 | 1014.6 |
| 20260507030605 | 7 | 114 | 3.2 | 4.8 | 0.00 | 0.00 | 0.00 | 86 | 1014.5 |
| 20260507025604 | 7 | 114 | 3.2 | 4.8 | 0.00 | 0.00 | 0.00 | 85 | 1014.6 |